Location: Unspecified
(0.0000°N, 0.0000°E)
Time: 12:46:45
(UTC+00:00)

N. Korean satellite - Pass Details

Date: 15 June 2021
Orbit: 450 x 500 km, 97.2° (Epoch: 18 June)

Event Time Altitude Azimuth Distance (km) Brightness Sun altitude
Rises 05:23:28 0° 354° (N) 2,544 10.5 -8.5°
Reaches altitude 10° 05:25:41 10° 342° (NNW) 1,674 9.4 -8.0°
Maximum altitude 05:28:51 29° 281° (W) 925 7.5 -7.3°
Drops below altitude 10° 05:32:04 10° 219° (SW) 1,697 8.8 -6.5°
Enters shadow 05:33:51 - 210° (SSW) 2,389 9.6 -6.1°
